This is the latest recevied weather packets stored in our database for station/object K1RFS. If no packets are shown the sender has not sent any weather packets the latest 10 day(s).
| Time | Temp. | Humidity | Pressure | Rain* | Wind** | Luminosity | Snow |
|---|---|---|---|---|---|---|---|
| 1788373188 | 26.11° C | 29% | 1000.9 hPa | 0 mm | - | 530 W/m² | - |
| 1788372884 | 25.56° C | 29% | 1000.9 hPa | 0 mm | - | 539 W/m² | - |
| 1788372578 | 25.56° C | 28% | 1001.2 hPa | 0 mm | - | 534 W/m² | - |
| 1788372274 | 25.56° C | 29% | 1001.2 hPa | 0 mm | - | 521 W/m² | - |
| 1788371970 | 25.56° C | 29% | 1000.9 hPa | 0 mm | - | 511 W/m² | - |
| 1788371664 | 25° C | 30% | 1000.8 hPa | 0 mm | - | 47 W/m² | - |
| 1788371360 | 25.56° C | 30% | 1000.8 hPa | 0 mm | - | 40 W/m² | - |
| 1788371057 | 25° C | 31% | 1001 hPa | 0 mm | - | 41 W/m² | - |
| 1788370752 | 25° C | 32% | 1000.9 hPa | 0 mm | - | 39 W/m² | - |
| 1788370452 | 25° C | 32% | 1001 hPa | 0 mm | - | 41 W/m² | - |
| 1788370152 | 25° C | 33% | 1001 hPa | 0 mm | - | 40 W/m² | - |
| 1788369851 | 25° C | 33% | 1000.9 hPa | 0 mm | - | 44 W/m² | - |
| 1788369546 | 25° C | 33% | 1000.8 hPa | 0 mm | - | 47 W/m² | - |
| 1788369242 | 25° C | 33% | 1000.8 hPa | 0 mm | - | 45 W/m² | - |
| 1788368938 | 24.44° C | 34% | 1000.8 hPa | 0 mm | - | 43 W/m² | - |
| 1788368638 | 24.44° C | 35% | 1000.8 hPa | 0 mm | - | 48 W/m² | - |
| 1788368334 | 24.44° C | 34% | 1000.6 hPa | 0 mm | - | 44 W/m² | - |
| 1788368033 | 24.44° C | 34% | 1000.9 hPa | 0 mm | - | 46 W/m² | - |
| 1788367728 | 24.44° C | 34% | 1000.8 hPa | 0 mm | - | 42 W/m² | - |
| 1788367423 | 24.44° C | 34% | 1000.7 hPa | 0 mm | - | 43 W/m² | - |
| 1788367122 | 23.89° C | 35% | 1000.8 hPa | 0 mm | - | 43 W/m² | - |
| 1788366817 | 23.89° C | 35% | 1000.7 hPa | 0 mm | - | 45 W/m² | - |
| 1788366515 | 23.89° C | 36% | 1000.7 hPa | 0 mm | - | 41 W/m² | - |
| 1788366211 | 23.33° C | 36% | 1000.6 hPa | 0 mm | - | 33 W/m² | - |
| 1788365910 | 23.33° C | 37% | 1001.2 hPa | 0 mm | - | 33 W/m² | - |
* Rain latest hour (hover to see other rain measurements)
** Current wind speed in m/s (hover to see current wind gust speed)